H1 CPF 2 NER 2025 10 8 9 281 01 glonass129 H2 1106402 9129 37868 2025 10 8 0 0 0 2025 10 11 23 45 0 900 1 1 0 0 0 1 H9 10 0 60956 0.00000 0 -8004356.292 -23403283.245 -6077610.504 10 0 60956 900.00000 0 -7713417.690 -22490056.320 -9125826.060 10 0 60956 1800.00000 0 -7165959.407 -21289119.317 -11995907.375 10 0 60956 2700.00000 0 -6336007.066 -19854126.479 -14631789.162 10 0 60956 3600.00000 0 -5209375.004 -18244989.901 -16981988.200 10 0 60956 4500.00000 0 -3784535.184 -16525351.361 -19000625.320 10 0 60956 5400.00000 0 -2072948.063 -14759915.576 -20648333.629 10 0 60956 6300.00000 0 -98840.130 -13011759.057 -21893034.219 10 0 60956 7200.00000 0 2101563.258 -11339729.440 -22710563.617 10 0 60956 8100.00000 0 4481317.575 -9796045.825 -23085140.744 10 0 60956 9000.00000 0 6984497.286 -8424201.485 -23009664.755 10 0 60956 9900.00000 0 9548318.901 -7257256.849 -22485838.850 10 0 60956 10800.00000 0 12105559.204 -6316593.389 -21524118.827 10 0 60956 11700.00000 0 14587166.800 -5611179.029 -20143488.816 10 0 60956 12600.00000 0 16924957.266 -5137373.559 -18371070.058 10 0 60956 13500.00000 0 19054279.234 -4879279.505 -16241571.881 10 0 60956 14400.00000 0 20916540.446 -4809620.728 -13796596.987 10 0 60956 15300.00000 0 22461489.151 -4891108.945 -11083815.898 10 0 60956 16200.00000 0 23649157.028 -5078237.961 -8156027.726 10 0 60956 17100.00000 0 24451384.331 -5319427.900 -5070126.372 10 0 60956 18000.00000 0 24852865.740 -5559427.442 -1885992.880 10 0 60956 18900.00000 0 24851675.582 -5741871.848 1334664.326 10 0 60956 19800.00000 0 24459252.828 -5811888.645 4529498.879 10 0 60956 20700.00000 0 23699848.636 -5718641.384 7636722.960 10 0 60956 21600.00000 0 22609461.258 -5417705.037 10596288.456 10 0 60956 22500.00000 0 21234304.002 -4873173.988 13351031.110 10 0 60956 23400.00000 0 19628870.763 -4059414.975 15847756.918 10 0 60956 24300.00000 0 17853679.706 -2962392.160 18038251.428 10 0 60956 25200.00000 0 15972788.372 -1580509.147 19880194.207 10 0 60956 26100.00000 0 14051182.427 75067.521 21337962.454 10 0 60956 27000.00000 0 12152145.068 1980617.772 22383309.773 10 0 60956 27900.00000 0 10334714.642 4100603.232 22995908.192 10 0 60956 28800.00000 0 8651334.453 6388899.875 23163743.595 10 0 60956 29700.00000 0 7145790.932 8790479.553 22883357.123 10 0 60956 30600.00000 0 5851524.854 11243473.577 22159927.342 10 0 60956 31500.00000 0 4790385.404 13681535.612 21007190.539 10 0 60956 32400.00000 0 3971879.075 16036408.515 19447199.000 10 0 60956 33300.00000 0 3392945.412 18240590.725 17509919.931 10 0 60956 34200.00000 0 3038270.080 20229992.781 15232680.478 10 0 60956 35100.00000 0 2881123.519 21946474.058 12659467.295 10 0 60956 36000.00000 0 2884691.375 23340153.721 9840092.106 10 0 60956 36900.00000 0 3003841.944 24371398.300 6829237.716 10 0 60956 37800.00000 0 3187256.881 25012401.075 3685401.861 10 0 60956 38700.00000 0 3379835.329 25248284.936 469758.889 10 0 60956 39600.00000 0 3525269.207 25077680.200 -2755038.325 10 0 60956 40500.00000 0 3568679.270 24512751.000 -5926092.020 10 0 60956 41400.00000 0 3459198.271 23578667.479 -8981503.264 10 0 60956 42300.00000 0 3152389.189 22312544.935 -11861599.563 10 0 60956 43200.00000 0 2612393.277 20761894.300 -14510120.351 10 0 60956 44100.00000 0 1813714.081 18982649.574 -16875335.101 10 0 60956 45000.00000 0 742559.296 17036856.345 -18911070.302 10 0 60956 45900.00000 0 -602318.465 14990120.140 -20577623.651 10 0 60956 46800.00000 0 -2209319.138 12908923.626 -21842546.569 10 0 60956 47700.00000 0 -4054244.673 10857927.057 -22681279.106 10 0 60956 48600.00000 0 -6101090.328 8897366.639 -23077624.875 10 0 60956 49500.00000 0 -8303344.393 7080660.766 -23024057.185 10 0 60956 50400.00000 0 -10605741.118 5452324.580 -22521851.295 10 0 60956 51300.00000 0 -12946392.541 4046279.585 -21581041.424 10 0 60956 52200.00000 0 -15259209.031 2884627.656 -20220204.744 10 0 60956 53100.00000 0 -17476506.437 1976938.663 -18466078.114 10 0 60956 54000.00000 0 -19531690.342 1320078.832 -16353016.518 10 0 60956 54900.00000 0 -21361905.118 898584.000 -13922305.185 10 0 60956 55800.00000 0 -22910537.427 685558.873 -11221340.114 10 0 60956 56700.00000 0 -24129470.433 644061.468 -8302694.021 10 0 60956 57600.00000 0 -24980995.880 728911.785 -5223086.755 10 0 60956 58500.00000 0 -25439305.826 888846.393 -2042280.771 10 0 60956 59400.00000 0 -25491503.691 1068926.624 1178076.590 10 0 60956 60300.00000 0 -25138094.427 1213098.063 4375641.639 10 0 60956 61200.00000 0 -24392935.316 1266793.290 7488571.050 10 0 60956 62100.00000 0 -23282651.136 1179468.600 10456704.319 10 0 60956 63000.00000 0 -21845539.377 906968.687 13222710.276 10 0 60956 63900.00000 0 -20130011.838 413620.812 15733176.786 10 0 60956 64800.00000 0 -18192637.617 -326028.607 17939624.284 10 0 60956 65700.00000 0 -16095868.338 -1325907.160 19799425.261 10 0 60956 66600.00000 0 -13905539.085 -2587593.919 21276613.639 10 0 60956 67500.00000 0 -11688247.234 -4100016.057 22342569.930 10 0 60956 68400.00000 0 -9508716.148 -5839678.429 22976570.154 10 0 60956 69300.00000 0 -7427251.184 -7771418.368 23166188.608 10 0 60956 70200.00000 0 -5497391.808 -9849656.672 22907546.914 10 0 60956 71100.00000 0 -3763855.781 -12020095.595 22205404.029 10 0 60956 72000.00000 0 -2260859.915 -14221796.172 21073084.440 10 0 60956 72900.00000 0 -1010886.821 -16389551.386 19532244.302 10 0 60956 73800.00000 0 -23949.253 -18456458.975 17612478.002 10 0 60956 74700.00000 0 702616.530 -20356588.556 15350770.489 10 0 60956 75600.00000 0 1183818.635 -22027633.017 12790803.664 10 0 60956 76500.00000 0 1446151.285 -23413433.628 9982128.114 10 0 60956 77400.00000 0 1526245.317 -24466272.593 6979214.550 10 0 60956 78300.00000 0 1469083.314 -25148835.531 3840402.131 10 0 60956 79200.00000 0 1325854.322 -25435759.487 626763.597 10 0 60956 80100.00000 0 1151539.037 -25314699.038 -2599090.527 10 0 60956 81000.00000 0 1002328.647 -24786863.249 -5774244.486 10 0 60956 81900.00000 0 932988.328 -23866998.681 -8836721.205 10 0 60956 82800.00000 0 994279.373 -22582817.524 -11726711.343 10 0 60956 83700.00000 0 1230551.825 -20973893.949 -14387761.466 10 0 60956 84600.00000 0 1677612.406 -19090074.896 -16767896.016 10 0 60956 85500.00000 0 2360960.666 -16989472.687 -18820649.209 10 0 60957 0.00000 0 3294470.227 -14736125.136 -20505985.005 10 0 60957 900.00000 0 4479573.221 -12397421.671 -21791086.905 10 0 60957 1800.00000 0 5904982.241 -10041408.145 -22650999.371 10 0 60957 2700.00000 0 7546963.740 -7734080.709 -23069111.330 10 0 60957 3600.00000 0 9370150.168 -5536786.143 -23037470.435 10 0 60957 4500.00000 0 11328856.589 -3503836.706 -22556923.772 10 0 60957 5400.00000 0 13368845.574 -1680439.173 -21637083.344 10 0 60957 6300.00000 0 15429465.316 -101023.572 -20296118.359 10 0 60957 7200.00000 0 17446070.281 1211960.305 -18560379.914 10 0 60957 8100.00000 0 19352622.231 2248730.801 -16463866.895 10 0 60957 9000.00000 0 21084362.184 3012320.907 -14047544.931 10 0 60957 9900.00000 0 22580441.395 3518180.498 -11358532.982 10 0 60957 10800.00000 0 23786401.663 3793254.321 -8449174.497 10 0 60957 11700.00000 0 24656402.046 3874577.534 -5376012.076 10 0 60957 12600.00000 0 25155100.102 3807450.505 -2198686.174 10 0 60957 13500.00000 0 25259110.564 3643271.772 1021220.478 10 0 60957 14400.00000 0 24957982.208 3437121.753 4221370.381 10 0 60957 15300.00000 0 24254653.846 3245199.647 7339868.059 10 0 60957 16200.00000 0 23165371.966 3122221.473 10316443.729 10 0 60957 17100.00000 0 21719074.664 3118888.232 13093602.053 10 0 60957 18000.00000 0 19956268.317 3279529.785 15617715.126 10 0 60957 18900.00000 0 17927443.892 3640022.473 17840040.191 10 0 60957 19800.00000 0 15691098.283 4226066.914 19717644.163 10 0 60957 20700.00000 0 13311441.852 5051897.619 21214218.759 10 0 60957 21600.00000 0 10855885.714 6119478.348 22300772.052 10 0 60957 22500.00000 0 8392411.039 7418217.457 22956184.297 10 0 60957 23400.00000 0 5986927.343 8925216.411 23167618.032 10 0 60957 24300.00000 0 3700727.179 10606043.054 22930774.750 10 0 60957 25200.00000 0 1588140.939 12415999.939 22249992.745 10 0 60957 26100.00000 0 -305512.305 14301837.671 21138183.220 10 0 60957 27000.00000 0 -1945593.643 16203844.806 19616604.292 10 0 60957 27900.00000 0 -3309363.659 18058229.886 17714475.249 10 0 60957 28800.00000 0 -4386701.063 19799698.453 15468436.252 10 0 60957 29700.00000 0 -5180289.758 21364118.908 12921861.621 10 0 60957 30600.00000 0 -5705265.408 22691166.420 10124037.838 10 0 60957 31500.00000 0 -5988335.093 23726833.818 7129220.450 10 0 60957 32400.00000 0 -6066406.048 24425703.019 3995586.961 10 0 60957 33300.00000 0 -5984780.622 24752879.703 784105.461 10 0 60957 34200.00000 0 -5794993.576 24685507.432 -2442658.808 10 0 60957 35100.00000 0 -5552383.806 24213794.899 -5621774.870 10 0 60957 36000.00000 0 -5313504.538 23341510.451 -8691190.041 10 0 60957 36900.00000 0 -5133483.660 22085920.892 -11590960.387 10 0 60957 37800.00000 0 -5063448.407 20477175.520 -14264441.530 10 0 60957 38700.00000 0 -5148126.143 18557160.441 -16659414.459 10 0 60957 39600.00000 0 -5423725.480 16377871.238 -18729122.358 10 0 60957 40500.00000 0 -5916189.795 13999372.922 -20433196.634 10 0 60957 41400.00000 0 -6639898.927 11487433.911 -21738452.899 10 0 60957 42300.00000 0 -7596875.245 8910934.617 -22619540.738 10 0 60957 43200.00000 0 -8776528.298 6339160.625 -23059434.505 10 0 60957 44100.00000 0 -10155948.840 3839094.865 -23049756.028 10 0 60957 45000.00000 0 -11700739.395 1472822.752 -22590923.756 10 0 60957 45900.00000 0 -13366345.467 -704841.242 -21692126.664 10 0 60957 46800.00000 0 -15099830.339 -2648407.145 -20371124.815 10 0 60957 47700.00000 0 -16842017.661 -4323358.830 -18653881.990 10 0 60957 48600.00000 0 -18529910.825 -5707332.436 -16574039.075 10 0 60957 49500.00000 0 -20099286.747 -6790777.372 -14172239.886 10 0 60957 50400.00000 0 -21487354.828 -7577075.423 -11495323.895 10 0 60957 51300.00000 0 -22635369.559 -8082116.352 -8595402.667 10 0 60957 52200.00000 0 -23491087.708 -8333351.080 -5528838.826 10 0 60957 53100.00000 0 -24010967.967 -8368365.210 -2355148.041 10 0 60957 54000.00000 0 -24162022.149 -8233035.374 864154.375 10 0 60957 54900.00000 0 -23923241.858 -7979347.770 4066739.918 10 0 60957 55800.00000 0 -23286542.459 -7662971.865 7190663.740 10 0 60957 56700.00000 0 -22257186.306 -7340691.766 10175549.476 10 0 60957 57600.00000 0 -20853668.710 -7067803.116 12963740.214 10 0 60957 58500.00000 0 -19107072.112 -6895584.257 15501394.669 10 0 60957 59400.00000 0 -17059915.595 -6868946.880 17739509.032 10 0 60957 60300.00000 0 -14764547.127 -7024363.661 19634846.437 10 0 60957 61200.00000 0 -12281144.353 -7388158.865 21150757.793 10 0 60957 62100.00000 0 -9675405.305 -7975232.897 22257879.680 10 0 60957 63000.00000 0 -7016022.732 -8788274.237 22934697.068 10 0 60957 63900.00000 0 -4372044.495 -9817492.307 23167960.744 10 0 60957 64800.00000 0 -1810226.992 -11040883.854 22952951.647 10 0 60957 65700.00000 0 607510.861 -12425023.739 22293586.577 10 0 60957 66600.00000 0 2826429.347 -13926349.613 21202362.259 10 0 60957 67500.00000 0 4801009.414 -15492889.607 19700137.256 10 0 60957 68400.00000 0 6496609.735 -17066363.656 17815753.940 10 0 60957 69300.00000 0 7890670.307 -18584573.010 15585505.593 10 0 60957 70200.00000 0 8973411.843 -19983979.836 13052456.592 10 0 60957 71100.00000 0 9748000.714 -21202369.952 10265626.712 10 0 60957 72000.00000 0 10230171.307 -22181487.115 7279053.541 10 0 60957 72900.00000 0 10447320.478 -22869527.501 4150749.986 10 0 60957 73800.00000 0 10437111.347 -23223387.849 941576.481 10 0 60957 74700.00000 0 10245644.844 -23210570.350 -2285950.003 10 0 60957 75600.00000 0 9925276.482 -22810661.335 -5468886.176 10 0 60957 76500.00000 0 9532171.569 -22016318.650 -8545106.512 10 0 60957 77400.00000 0 9123703.903 -20833723.456 -11454535.049 10 0 60957 78300.00000 0 8755810.199 -19282475.265 -14140338.813 10 0 60957 79200.00000 0 8480414.734 -17394933.096 -16550057.419 10 0 60957 80100.00000 0 8343035.764 -15215029.720 -18636644.800 10 0 60957 81000.00000 0 8380677.436 -12796608.776 -20359401.115 10 0 60957 81900.00000 0 8620098.304 -10201355.187 -21684775.448 10 0 60957 82800.00000 0 9076531.099 -7496406.681 -22587022.978 10 0 60957 83700.00000 0 9752908.605 -4751747.701 -23048703.716 10 0 60957 84600.00000 0 10639628.391 -2037495.878 -23061013.487 10 0 60957 85500.00000 0 11714865.861 578804.614 -22623941.544 10 0 60958 0.00000 0 12945421.313 3034769.232 -21746253.038 10 0 60958 900.00000 0 14288064.734 5275532.408 -20445297.525 10 0 60958 1800.00000 0 15691318.616 7255779.343 -18746650.040 10 0 60958 2700.00000 0 17097604.606 8941371.594 -16683591.701 10 0 60958 3600.00000 0 18445660.922 10310497.667 -14296442.460 10 0 60958 4500.00000 0 19673128.702 11354304.764 -11631759.956 10 0 60958 5400.00000 0 20719198.074 12076988.328 -8741421.235 10 0 60958 6300.00000 0 21527202.845 12495338.930 -5681606.057 10 0 60958 7200.00000 0 22047055.326 12637768.713 -2511702.210 10 0 60958 8100.00000 0 22237419.984 12542861.065 706845.630 10 0 60958 9000.00000 0 22067535.945 12257506.727 3911721.183 10 0 60958 9900.00000 0 21518613.226 11834706.230 7040933.371 10 0 60958 10800.00000 0 20584745.571 11331131.926 10034002.202 10 0 60958 11700.00000 0 19273302.746 10804552.201 12833111.865 10 0 60958 12600.00000 0 17604786.677 10311225.641 15384210.069 10 0 60958 13500.00000 0 15612157.622 9903373.649 17638033.964 10 0 60958 14400.00000 0 13339658.065 9626836.341 19551044.559 10 0 60958 15300.00000 0 10841182.270 9519008.799 21086253.241 10 0 60958 16200.00000 0 8178257.607 9607143.144 22213926.004 10 0 60958 17100.00000 0 5417719.292 9907086.873 22912153.049 10 0 60958 18000.00000 0 2629172.527 10422510.294 23167273.513 10 0 60958 18900.00000 0 -117655.381 11144656.028 22974147.429 10 0 60958 19800.00000 0 -2755565.727 12052622.449 22336269.286 10 0 60958 20700.00000 0 -5222434.212 13114171.213 21265720.017 10 0 60958 21600.00000 0 -7463547.946 14287027.498 19782956.835 10 0 60958 22500.00000 0 -9433637.637 15520621.195 17916442.953 10 0 60958 23400.00000 0 -11098520.758 16758198.611 15702122.141 10 0 60958 24300.00000 0 -12436286.942 17939218.274 13182745.917 10 0 60958 25200.00000 0 -13437975.228 19001931.790 10407064.229 10 0 60958 26100.00000 0 -14107713.610 19886041.891 7428893.501 10 0 60958 27000.00000 0 -14462313.739 20535325.578 4306078.832 10 0 60958 27900.00000 0 -14530336.633 20900110.670 1099369.861 10 0 60958 28800.00000 0 -14350667.964 20939499.321 -2128767.743 10 0 60958 29700.00000 0 -13970662.810 20623242.158 -5315381.219 10 0 60958 30600.00000 0 -13443938.695 19933181.046 -8398274.823 10 0 60958 31500.00000 0 -12827911.408 18864196.712 -11317242.934 10 0 60958 32400.00000 0 -12181179.581 17424618.687 -14015266.018 10 0 60958 33300.00000 0 -11560870.900 15636078.161 -16439644.009 10 0 60958 34200.00000 0 -11020064.650 13532808.618 -18543042.919 10 0 60958 35100.00000 0 -10605401.935 11160422.965 -20284432.621 10 0 60958 36000.00000 0 -10354986.674 8574218.596 -21629896.289 10 0 60958 36900.00000 0 -10296667.574 5837082.092 -22553295.004 10 0 60958 37800.00000 0 -10446774.538 3017082.301 -23036774.441 10 0 60958 38700.00000 0 -10809362.997 184853.588 -23071104.148 10 0 60958 39600.00000 0 -11375997.552 -2589120.427 -22655843.622 10 0 60958 40500.00000 0 -12126082.984 -5237208.591 -21799333.138 10 0 60958 41400.00000 0 -13027727.190 -7697206.632 -20518510.905 10 0 60958 42300.00000 0 -14039097.985 -9914677.404 -18838561.637 10 0 60958 43200.00000 0 -15110214.868 -11844960.646 -16792404.938 10 0 60958 44100.00000 0 -16185098.717 -13454770.343 -14420034.901 10 0 60958 45000.00000 0 -17204187.605 -14723315.521 -11767725.138 10 0 60958 45900.00000 0 -18106916.164 -15642900.625 -8887115.816 10 0 60958 46800.00000 0 -18834349.561 -16218983.548 -5834201.368 10 0 60958 47700.00000 0 -19331761.344 -16469692.091 -2668239.149 10 0 60958 48600.00000 0 -19551047.300 -16424822.096 549399.403 10 0 60958 49500.00000 0 -19452874.775 -16124361.812 3756412.889 10 0 60958 50400.00000 0 -19008478.311 -15616606.409 6890766.681 10 0 60958 51300.00000 0 -18201027.449 -14955943.014 9891879.847 10 0 60958 52200.00000 0 -17026510.448 -14200399.798 12701780.323 10 0 60958 53100.00000 0 -15494097.705 -13409061.830 15266207.331 10 0 60958 54000.00000 0 -13625969.989 -12639461.318 17535641.315 10 0 60958 54900.00000 0 -11456618.380 -11945050.507 19466243.216 10 0 60958 55800.00000 0 -9031644.176 -11372861.730 21020686.604 10 0 60958 56700.00000 0 -6406107.095 -10961451.232 22168868.191 10 0 60958 57600.00000 0 -3642488.292 -10739211.732 22888484.268 10 0 60958 58500.00000 0 -808350.152 -10723123.669 23165462.737 10 0 60958 59400.00000 0 2026212.872 -10917997.387 22994242.704 10 0 60958 60300.00000 0 4791229.496 -11316238.570 22377895.905 10 0 60958 61200.00000 0 7419505.359 -11898148.155 21328086.662 10 0 60958 62100.00000 0 9849167.285 -12632746.029 19864869.655 10 0 60958 63000.00000 0 12025993.898 -13479086.305 18016327.417 10 0 60958 63900.00000 0 13905436.347 -14388011.364 15818052.339 10 0 60958 64800.00000 0 15454245.001 -15304273.259 13312480.871 10 0 60958 65700.00000 0 16651633.542 -16168935.008 10548090.593 10 0 60958 66600.00000 0 17489930.610 -16921951.748 7578473.897 10 0 60958 67500.00000 0 17974690.275 -17504823.163 4461304.937 10 0 60958 68400.00000 0 18124255.275 -17863204.551 1257219.222 10 0 60958 69300.00000 0 17968790.234 -17949364.669 -1971372.283 10 0 60958 70200.00000 0 17548824.933 -17724384.235 -5161510.741 10 0 60958 71100.00000 0 16913369.059 -17159999.346 -8250933.430 10 0 60958 72000.00000 0 16117678.732 -16240008.977 -11179308.061 10 0 60958 72900.00000 0 15220770.536 -14961184.207 -13889431.238 10 0 60958 73800.00000 0 14282790.010 -13333638.290 -16328365.551 10 0 60958 74700.00000 0 13362348.039 -11380640.060 -18448491.035 10 0 60958 75600.00000 0 12513939.977 -9137877.287 -20208448.814 10 0 60958 76500.00000 0 11785558.600 -6652200.436 -21573957.258 10 0 60958 77400.00000 0 11216603.304 -3979899.731 -22518484.015 10 0 60958 78300.00000 0 10836174.806 -1184588.367 -23023760.652 10 0 60958 79200.00000 0 10661827.566 1665218.625 -23080130.247 10 0 60958 80100.00000 0 10698832.082 4498727.653 -22686721.957 10 0 60958 81000.00000 0 10939977.066 7245581.647 -21851450.345 10 0 60958 81900.00000 0 11365918.187 9838553.283 -20590840.868 10 0 60958 82800.00000 0 11946056.707 12216104.109 -18929686.445 10 0 60958 83700.00000 0 12639908.890 14324703.648 -16900543.375 10 0 60958 84600.00000 0 13398906.421 16120813.202 -14543077.840 10 0 60958 85500.00000 0 14168550.190 17572453.570 -11903277.103 10 0 60959 0.00000 0 14890825.201 18660293.738 -9032542.152 10 0 60959 900.00000 0 15506774.338 19378218.460 -5986678.751 10 0 60959 1800.00000 0 15959121.223 19733352.648 -2824811.061 10 0 60959 2700.00000 0 16194833.121 19745546.481 391765.873 10 0 60959 3600.00000 0 16167515.631 19446343.937 3600768.719 10 0 60959 4500.00000 0 15839539.720 18877480.837 6740122.441 10 0 60959 5400.00000 0 15183812.717 18088976.836 9749148.148 10 0 60959 6300.00000 0 14185119.971 17136902.212 12569720.285 10 0 60959 7200.00000 0 12840981.770 16080913.207 15147372.066 10 0 60959 8100.00000 0 11161990.066 14981658.689 17432329.390 10 0 60959 9000.00000 0 9171610.858 13898165.639 19380454.949 10 0 60959 9900.00000 0 6905459.706 12885311.510 20954085.967 10 0 60959 10800.00000 0 4410079.163 11991487.592 22122750.977 10 0 60959 11700.00000 0 1741266.919 11256549.607 22863753.074 10 0 60959 12600.00000 0 -1037978.416 10710140.064 23162609.217 10 0 60959 13500.00000 0 -3859811.506 10370451.792 23013337.429 10 0 60959 14400.00000 0 -6654099.806 10243484.344 22418586.054 10 0 60959 15300.00000 0 -9351085.013 10322825.011 21389601.657 10 0 60959 16200.00000 0 -11884038.491 10589964.881 19946034.724 10 0 60959 17100.00000 0 -14191802.243 11015138.500 18115584.956 10 0 60959 18000.00000 0 -16221110.850 11558653.938 15933490.788 10 0 60959 18900.00000 0 -17928598.046 12172659.513 13441870.666 10 0 60959 19800.00000 0 -19282403.761 12803274.644 10688926.620 10 0 60959 20700.00000 0 -20263313.373 13392996.382 7728023.701 10 0 60959 21600.00000 0 -20865379.992 13883280.657 4616661.789 10 0 60959 22500.00000 0 -21096001.996 14217188.941 1415358.992 10 0 60959 23400.00000 0 -20975451.035 14341987.263 -1813531.581 10 0 60959 24300.00000 0 -20535869.211 14211585.684 -5007047.976 10 0 60959 25200.00000 0 -19819777.155 13788712.427 -8102863.257 10 0 60959 26100.00000 0 -18878156.054 13046727.751 -11040520.982 10 0 60959 27000.00000 0 -17768185.471 11970997.856 -13762636.115 10 0 60959 27900.00000 0 -16550733.924 10559767.969 -16216035.785 10 0 60959 28800.00000 0 -15287710.150 8824495.420 -18352815.553 10 0 60959 29700.00000 0 -14039388.953 6789626.950 -20131288.889 10 0 60959 30600.00000 0 -12861826.559 4491828.599 -21516810.037 10 0 60959 31500.00000 0 -11804476.210 1978700.207 -22482453.487 10 0 60959 32400.00000 0 -10908105.669 -692971.270 -23009536.587 10 0 60959 33300.00000 0 -10203104.859 -3459345.791 -23087975.488 10 0 60959 34200.00000 0 -9708254.605 -6251961.436 -22716468.229 10 0 60959 35100.00000 0 -9430007.294 -9000360.290 -21902502.591 10 0 60959 36000.00000 0 -9362308.030 -11634798.776 -20662189.945 10 0 60959 36900.00000 0 -9486961.674 -14088929.063 -19019929.850 10 0 60959 37800.00000 0 -9774527.865 -16302340.003 -17007913.526 10 0 60959 38700.00000 0 -10185703.859 -18222852.550 -14665477.305 10 0 60959 39600.00000 0 -10673134.598 -19808475.368 -12038320.056 10 0 60959 40500.00000 0 -11183571.771 -21028941.070 -9177600.925 10 0 60959 41400.00000 0 -11660289.367 -21866761.419 -6138935.871 10 0 60959 42300.00000 0 -12045652.956 -22317760.133 -2981313.164 10 0 60959 43200.00000 0 -12283734.072 -22391063.825 234050.765 10 0 60959 44100.00000 0 -12322859.708 -22108554.096 3444892.915 10 0 60959 45000.00000 0 -12117990.167 -21503806.084 6589100.148 10 0 60959 45900.00000 0 -11632826.131 -20620559.640 9605897.967 10 0 60959 46800.00000 0 -10841557.376 -19510788.343 12437009.693 10 0 60959 47700.00000 0 -9730180.605 -18232447.607 15027764.880 10 0 60959 48600.00000 0 -8297331.805 -16846995.857 17328137.138 10 0 60959 49500.00000 0 -6554598.366 -15416791.536 19293693.002 10 0 60959 50400.00000 0 -4526297.483 -14002473.390 20886435.205 10 0 60959 51300.00000 0 -2248728.900 -12660431.790 22075525.658 10 0 60959 52200.00000 0 231068.714 -11440474.932 22837875.481 10 0 60959 53100.00000 0 2857008.442 -10383785.779 23158591.543 10 0 60959 54000.00000 0 5566025.458 -9521253.800 23031271.264 10 0 60959 54900.00000 0 8290444.151 -8872250.515 22458139.706 10 0 60959 55800.00000 0 10960546.775 -8443899.983 21450025.428 10 0 60959 56700.00000 0 13507239.732 -8230875.342 20026174.128 10 0 60959 57600.00000 0 15864708.923 -8215731.151 18213901.723 10 0 60959 58500.00000 0 17972955.208 -8369759.214 16048091.378 10 0 60959 59400.00000 0 19780105.040 -8654333.781 13570541.844 10 0 60959 60300.00000 0 21244399.746 -9022691.296 10829177.511 10 0 60959 61200.00000 0 22335779.356 -9422071.116 7877133.596 10 0 60959 62100.00000 0 23036993.232 -9796127.718 4771732.823 10 0 60959 63000.00000 0 23344189.062 -10087512.546 1573372.699 10 0 60959 63900.00000 0 23266953.647 -10240515.528 -1655654.960 10 0 60959 64800.00000 0 22827802.143 -10203652.871 -4852388.632 10 0 60959 65700.00000 0 22061136.164 -9932089.289 -7954440.687 10 0 60959 66600.00000 0 21011714.193 -9389789.308 -10901233.893 10 0 60959 67500.00000 0 19732699.098 -8551303.588 -13635204.669 10 0 60959 68400.00000 0 18283366.065 -7403111.760 -16102947.440 10 0 60959 69300.00000 0 16726569.203 -5944462.403 -18256275.671 10 0 60959 70200.00000 0 15126075.501 -4187672.585 -20053177.140 10 0 60959 71100.00000 0 13543880.490 -2157872.908 -21458643.520 10 0 60959 72000.00000 0 12037620.477 107792.013 -22445357.267 10 0 60959 72900.00000 0 10658191.610 2561474.109 -22994222.218 10 0 60959 73800.00000 0 9447676.652 5146388.157 -23094727.885 10 0 60959 74700.00000 0 8437666.593 7798959.005 -22745141.070 10 0 60959 75600.00000 0 7648046.798 10451259.052 -21952522.267 10 0 60959 76500.00000 0 7086297.120 13033633.289 -20732567.876 10 0 60959 77400.00000 0 6747333.194 15477401.714 -19109282.866 10 0 60959 78300.00000 0 6613892.969 17717526.187 -17114491.815 10 0 60959 79200.00000 0 6657449.402 19695130.838 -14787199.320 10 0 60959 80100.00000 0 6839608.120 21359771.780 -12172813.643 10 0 60959 81000.00000 0 7113928.653 22671362.898 -9322249.839 10 0 60959 81900.00000 0 7428090.453 23601679.308 -6290930.746 10 0 60959 82800.00000 0 7726310.819 24135377.982 -3137705.942 10 0 60959 83700.00000 0 7951911.946 24270495.423 76289.979 10 0 60959 84600.00000 0 8049928.548 24018404.102 3288817.666 10 0 60959 85500.00000 0 7969646.456 23403231.736 6437729.190 99